Regional Weather Roundup
Issued by NWS

Home | Current Version | Previous Version | Text Only | Print | Product List | Glossary On
Versions: 1 2 3 4 5 6 7 8 9 10 11 12 13 14 15 16 17 18 19 20 21 22 23 24 25 26 27 28 29 30 31 32 33 34 35 36 37 38 39 40 41 42 43 44 45 46 47 48 49 50
000
ASUS46 KSTO 191015
RWRCA

NORTHERN AND CENTRAL CA REGIONAL WEATHER ROUNDUP
NATIONAL WEATHER SERVICE SACRAMENTO CA
200 AM PST MON FEB 19 2018

NOTE: FAIR INDICATES FEW OR NO CLOUDS BELOW 12,000 FEET WITH NO
SIGNIFICANT WEATHER AND/OR OBSTRUCTIONS TO VISIBILITY.

CAZ001-003-191100-
NORTHWEST AREA

CITY           SKY/WX    TMP DP  RH WIND       PRES   REMARKS
CRESCENT CITY  MOCLDY    41  35  79 N7G17     29.97R
UKIAH          MOCLDY    38  27  64 NW13      29.96S WCI  30
$$

CAZ006-505>513-191100-
BAY AREA

CITY           SKY/WX    TMP DP  RH WIND       PRES   REMARKS
SANTA ROSA     CLEAR     35  29  78 SE5       29.97S WCI  31
SAN RAFAEL     N/A       41  MM  MM MISG
NAPA           CLEAR     37  29  72 W9        29.96S WCI  30
CONCORD        CLEAR     43  28  55 VRB6      29.97S
OAKLAND CITY   N/A      MM  MM  MM MISG
OAKLAND        CLEAR     44  28  53 NW15      29.98F
SAN FRAN CITY  N/A       44  MM  53 MISG
SAN FRAN ARPT  PTCLDY    44  30  57 W16       30.00R
LIVERMORE      CLEAR     37  27  67 CALM      29.96S
HAYWARD        CLEAR     43  25  49 NW7       29.98F
REDWOOD CITY   N/A       43  MM  66 MISG
MOFFETT ARPT   CLEAR     44  31  60 W7        30.00S
SAN JOSE ARPT  CLEAR     44  31  60 W14       30.00S
$$
CAZ034-037-514>518-191100-
CENTRAL COAST

CITY           SKY/WX    TMP DP  RH WIND       PRES   REMARKS
WATSONVILLE    CLEAR     39  32  76 SW3       30.00S
SALINAS        PTCLDY    44  33  65 W7        30.01R
MONTEREY       PTCLDY    46  35  65 W14       30.02S
SAN LUIS OBISP CLEAR     41  34  76 CALM      29.98S
$$
CAZ015-016-191100-
NORTHERN SACRAMENTO VALLEY

CITY           SKY/WX    TMP DP  RH WIND       PRES   REMARKS
REDDING        CLEAR     33  23  66 SW3       29.87S
RED BLUFF      PTCLDY    38  22  52 N5        29.89R WCI  34
OROVILLE       CLEAR     34  25  69 E3        29.91S
$$
CAZ016>018-191100-
SOUTHERN SACRAMENTO VALLEY

CITY           SKY/WX    TMP DP  RH WIND       PRES   REMARKS
AUBURN         CLEAR     30  25  80 CALM      29.87S
BEALE AFB      CLEAR     31  24  73 CALM      29.90S
LINCOLN        FAIR      30  27  86 CALM      29.91R
MARYSVILLE     CLEAR     33  26  75 S3        29.92S
SAC INTL ARPT  CLEAR     39  27  62 CALM      29.92R
MATHER AIRPORT NOT AVBL
DOWNTOWN SAC   N/A       39  MM  MM MISG
SAC EXEC ARPT  CLEAR     34  28  79 SE5       29.93S WCI  30
VACAVILLE      CLEAR     42  25  50 W12       29.93S
TRAVIS AFB     CLEAR     38  26  62 W10       29.92R WCI  31
$$
CAZ019>021-191100-
SAN JOAQUIN VALLEY

CITY           SKY/WX    TMP DP  RH WIND       PRES   REMARKS
STOCKTON       CLEAR     39  29  67 W9        29.94S WCI  33
MODESTO        CLEAR     42  27  55 NW13      29.93S
MERCED         CLEAR     38  26  62 CALM      29.94R
LEMOORE        CLEAR     41  27  57 NW10      29.95S
FRESNO         MOCLDY    43  28  55 W9        29.94S
HANFORD        CLEAR     42  29  59 NW8       29.95S
PORTERVILLE    CLOUDY    44  29  55 NW9       29.95S
BAKERSFIELD    PTCLDY    43  31  62 NW7       29.94R
$$
CAZ011-012-071-191100-
NORTHERN MOUNTAINS

CITY           SKY/WX    TMP DP  RH WIND       PRES   REMARKS
YREKA          CLOUDY    26  19  74 CALM      29.82R
MOUNT SHASTA   MOCLDY    26  13  57 N8        29.75R WCI  18
ALTURAS        MOCLDY    18  14  84 NW7       29.70R WCI   9
$$
CAZ011-012-071-191100-
SIERRA NEVADA MTNS

CITY           SKY/WX    TMP DP  RH WIND       PRES   REMARKS
BLUE CANYON    CLEAR     17  14  88 CALM      29.72F
TRUCKEE        PTCLDY    18   9  68 W8        29.66S WCI   7
TAHOE VLY ARPT MOCLDY    17   5  59 S13       29.65S WCI   4
MAMMOTH LAKES  FAIR      19  -8  30 W13G20    29.57F WCI   5
$$



USA.gov is the U.S. government's official web portal to all federal, state and local government web resources and services.